DW7957 Weather Reports


time (UTC)temp
C
wind
direction
speed
KPH
gust
KPH
rain 1hr
cm
rain 24hr
cm
rain mn
cm
humidity
%
barometer
mb
20260504050747 11 256 0.0 3.2 0.00 0.00 0.00 52 1004.8
20260504045722 11 256 0.0 1.6 0.00 0.00 0.00 50 1004.9
20260504044731 11 256 0.0 3.2 0.00 0.00 0.00 49 1005.0
20260504043720 11 256 3.2 4.8 0.00 0.00 0.00 49 1005.1
20260504042721 11 256 1.6 4.8 0.00 0.00 0.00 49 1005.3
20260504041738 11 256 1.6 4.8 0.00 0.00 0.00 49 1005.4
20260504040715 11 256 1.6 3.2 0.00 0.00 0.00 48 1005.5
20260504035721 11 256 1.6 4.8 0.00 0.00 0.00 50 1005.7
20260504034718 11 256 0.0 3.2 0.00 0.00 0.00 51 1005.8
20260504033718 11 256 1.6 3.2 0.00 0.00 0.00 50 1005.8
20260504032731 12 256 0.0 1.6 0.00 0.00 0.00 50 1006.1
20260504031732 12 256 0.0 0.0 0.00 0.00 0.00 50 1006.2
20260504030744 12 256 0.0 0.0 0.00 0.00 0.00 48 1006.3
20260504025725 12 256 0.0 0.0 0.00 0.00 0.00 47 1006.5
20260504024733 13 256 0.0 1.6 0.00 0.00 0.00 46 1006.5
20260504023743 13 256 0.0 1.6 0.00 0.00 0.00 45 1006.5
20260504022722 13 256 0.0 1.6 0.00 0.00 0.00 45 1006.4
20260504021732 15 256 0.0 1.6 0.00 0.00 0.00 43 1006.5
20260504020732 15 256 0.0 1.6 0.00 0.00 0.00 42 1006.4
20260504015732 16 256 1.6 4.8 0.00 0.00 0.00 40 1006.4
20260504014722 16 256 0.0 4.8 0.00 0.00 0.00 39 1006.2
20260504013731 16 256 1.6 4.8 0.00 0.00 0.00 37 1006.2
20260504012735 17 256 1.6 6.4 0.00 0.00 0.00 36 1006.3
20260504011740 17 256 1.6 4.8 0.00 0.00 0.00 35 1006.2
20260504010718 18 256 0.0 4.8 0.00 0.00 0.00 33 1006.1
20260504005717 18 256 1.6 16.1 0.00 0.00 0.00 32 1006.2
20260504004722 19 261 6.4 12.9 0.00 0.00 0.00 30 1006.3
20260504003729 19 277 3.2 16.1 0.00 0.00 0.00 28 1006.2
20260504002732 20 313 6.4 14.5 0.00 0.00 0.00 28 1006.3
20260504001718 20 265 4.8 12.9 0.00 0.00 0.00 28 1006.4
20260504000732 20 288 4.8 17.7 0.00 0.00 0.00 27 1006.4
20260503235719 21 274 4.8 17.7 0.00 0.00 0.00 27 1006.4
20260503234716 21 275 6.4 19.3 0.00 0.00 0.00 27 1006.4
20260503233751 21 318 9.7 25.7 0.00 0.00 0.00 27 1006.4
20260503232725 21 271 6.4 19.3 0.00 0.00 0.00 27 1006.5
20260503231721 21 293 6.4 20.9 0.00 0.00 0.00 26 1006.5
20260503230718 21 263 4.8 20.9 0.00 0.00 0.00 27 1006.4
20260503225722 21 5 6.4 24.1 0.00 0.00 0.00 27 1006.4
20260503224716 21 329 9.7 20.9 0.00 0.00 0.00 28 1006.3
20260503223720 21 283 9.7 20.9 0.00 0.00 0.00 26 1006.2
20260503222717 21 292 6.4 27.4 0.00 0.00 0.00 27 1006.4
20260503221729 21 305 8.0 22.5 0.00 0.00 0.00 28 1006.2
20260503220718 21 327 9.7 25.7 0.00 0.00 0.00 27 1006.2
20260503215754 21 291 9.7 30.6 0.00 0.00 0.00 27 1006.4
20260503214720 21 310 8.0 25.7 0.00 0.00 0.00 27 1006.4
20260503213731 21 271 8.0 22.5 0.00 0.00 0.00 30 1006.3
20260503212727 21 324 9.7 27.4 0.00 0.00 0.00 29 1006.5
20260503211722 21 277 9.7 30.6 0.00 0.00 0.00 28 1006.4
20260503210735 21 279 12.9 27.4 0.00 0.00 0.00 28 1006.6
20260503205732 21 247 9.7 27.4 0.00 0.00 0.00 27 1006.7
20260503204721 21 316 9.7 37.0 0.00 0.00 0.00 28 1006.9
20260503203738 21 274 8.0 30.6 0.00 0.00 0.00 30 1006.8
20260503202728 21 355 9.7 27.4 0.00 0.00 0.00 31 1006.8
20260503201722 21 315 11.3 30.6 0.00 0.00 0.00 31 1006.9
20260503200717 21 288 11.3 20.9 0.00 0.00 0.00 29 1006.9
20260503195720 21 241 14.5 32.2 0.00 0.00 0.00 30 1007.2
20260503194727 21 261 6.4 22.5 0.00 0.00 0.00 31 1007.2
20260503193731 21 213 11.3 20.9 0.00 0.00 0.00 32 1007.2
20260503192740 20 338 8.0 33.8 0.00 0.00 0.00 32 1007.3
20260503191731 20 328 14.5 25.7 0.00 0.00 0.00 29 1007.3
20260503190738 20 313 11.3 29.0 0.00 0.00 0.00 31 1007.3
20260503185731 20 325 12.9 27.4 0.00 0.00 0.00 31 1007.4
20260503184742 20 294 16.1 24.1 0.00 0.00 0.00 30 1007.3
20260503183757 20 292 12.9 24.1 0.00 0.00 0.00 33 1007.2
20260503182723 20 336 9.7 30.6 0.00 0.00 0.00 35 1007.3
20260503181735 20 296 11.3 25.7 0.00 0.00 0.00 33 1007.5
20260503180722 20 311 11.3 22.5 0.00 0.00 0.00 36 1007.4
20260503175717 20 324 17.7 29.0 0.00 0.00 0.00 35 1007.5
20260503174742 20 288 11.3 27.4 0.00 0.00 0.00 36 1007.5
20260503173723 19 319 12.9 25.7 0.00 0.00 0.00 36 1007.7
20260503172718 19 305 11.3 33.8 0.00 0.00 0.00 37 1007.6
20260503171717 19 355 8.0 29.0 0.00 0.00 0.00 38 1007.6
20260503170715 18 317 11.3 29.0 0.00 0.00 0.00 40 1007.6
20260503150718 16 283 8.0 17.7 0.00 0.00 0.00 46 1007.0
20260503130719 11 215 14.5 25.7 0.00 0.00 0.00 51 1007.0
20260503110716 11 181 12.9 24.1 0.00 0.00 0.00 49 1007.0
20260503080753 12 196 16.1 33.8 0.00 0.00 0.00 43 1009.2
20260503072720 13 211 8.0 16.1 0.00 0.00 0.00 44 1010.3
20260503071727 13 183 9.7 22.5 0.00 0.00 0.00 43 1010.3
20260503070732 13 242 9.7 24.1 0.00 0.00 0.00 44 1010.3